Euro Snow — VQGH9 — position and weather

sailwx.info

Track history (hours):
 
Tides and Currents Weather Stations Pressure Air Temp Water Temp Dewpoint Dewpoint Depression Visibility Wind Speed Wind Dir Waves Ship Positions

Euro Snow

Last reported at 2014-Sep-01 22:24 UTC. Time now 2014-Sep-01 23:53 UTC.
Position N 44°23' W 009°16'.

Length 133 m; draft 7.3 m.

Type: Cargo ship. MMSI: 235613000.

Date/timePositionNaut miles runAvg speedWind from/ knotsBaromVisibWave heightAir tempDewpointWater temp
2014-Sep-01 22:24N 44°23' W 009°16'22114.9
2014-Sep-01 07:32N 47°38' W 006°45'2115.0
2014-Sep-01 06:06N 47°57' W 006°30'2314.7
2014-Sep-01 04:33N 48°17' W 006°14'1515.1
2014-Sep-01 03:33N 48°30' W 006°05'1615.9
2014-Sep-01 02:33N 48°44' W 005°53'3316.4
2014-Sep-01 00:31N 49°05' W 005°13'9115.3
2014-Aug-31 18:33N 49°51' W 003°12'14215.4
2014-Aug-31 09:21N 50°34' E 000°19'1316.0
2014-Aug-31 08:33N 50°38' E 000°37'1616.5
2014-Aug-31 07:34N 50°47' E 000°59'1716.2
2014-Aug-31 06:30N 50°57' E 001°21'1614.8
2014-Aug-31 05:26N 51°08' E 001°39'1213.7
2014-Aug-31 04:33N 51°18' E 001°51'1413.7
2014-Aug-31 03:33N 51°29' E 002°04'1414.3
2014-Aug-31 02:33N 51°40' E 002°19'4814.9
2014-Aug-30 23:19N 52°04' E 003°27'1215.8
2014-Aug-30 22:34N 52°04' E 003°47'1212.0
2014-Aug-30 21:33N 51°58' E 004°04'1 0.8
2014-Aug-30 20:30N 51°58' E 004°03'0 0.0
2014-Aug-30 19:29N 51°58' E 004°03'0 0.0
2014-Aug-30 18:32N 51°58' E 004°03'0 0.0
2014-Aug-30 17:33N 51°58' E 004°03'0 0.0
2014-Aug-30 16:33N 51°58' E 004°03'0 0.0
2014-Aug-30 15:33N 51°58' E 004°03'0 0.0
2014-Aug-30 14:33N 51°58' E 004°03'0 0.0
2014-Aug-30 13:30N 51°58' E 004°03'0 0.0
2014-Aug-30 12:25N 51°58' E 004°03'0 0.0
2014-Aug-30 11:31N 51°58' E 004°03'0 0.0
2014-Aug-30 10:31N 51°58' E 004°03'0 0.0
2014-Aug-30 09:31N 51°58' E 004°03'0 0.0
2014-Aug-30 08:31N 51°58' E 004°03'0 0.0
2014-Aug-30 07:31N 51°58' E 004°03'0 0.0
2014-Aug-30 04:23N 51°58' E 004°03'0 0.0
2014-Aug-30 03:26N 51°58' E 004°03'0 0.0
2014-Aug-30 02:32N 51°58' E 004°03'0 0.0
2014-Aug-30 01:32N 51°58' E 004°03'0 0.0
2014-Aug-30 00:33N 51°58' E 004°03'2 1.7
2014-Aug-29 23:34N 51°58' E 004°05'1313.2
2014-Aug-29 22:33N 52°05' E 003°47'1515.5
2014-Aug-29 21:33N 52°21' E 003°48'1514.8
2014-Aug-29 20:33N 52°35' E 003°51'1414.1
2014-Aug-29 19:33N 52°49' E 003°57'1313.4
2014-Aug-29 18:33N 53°01' E 004°06'1313.4
2014-Aug-29 17:33N 53°11' E 004°22'1413.5
2014-Aug-29 16:33N 53°23' E 004°32'1615.0
2014-Aug-29 15:30N 53°38' E 004°40'1515.0
2014-Aug-29 14:32N 53°52' E 004°47'12215.2
2014-Aug-29 06:33N 55°37' E 006°34'1615.6
2014-Aug-29 05:32N 55°50' E 006°49'14115.6
2014-Aug-28 20:32N 57°36' E 009°39'1616.5
2014-Aug-28 19:33N 57°43' E 010°05'1616.1
2014-Aug-28 18:34N 57°48' E 010°34'1514.7
2014-Aug-28 17:33N 57°41' E 010°59'1615.6
2014-Aug-28 16:33N 57°31' E 011°20'1413.9
2014-Aug-28 15:34N 57°19' E 011°32'1716.3
2014-Aug-28 14:32N 57°03' E 011°43'1616.2
2014-Aug-28 13:30N 56°47' E 011°52'3216.1
2014-Aug-28 11:30N 56°21' E 011°18'2216.7
2014-Aug-28 10:11N 56°04' E 010°53'1 0.2
2014-Aug-28 02:27N 56°03' E 010°51'1315.1
2014-Aug-28 01:33N 56°14' E 011°06'1413.9
2014-Aug-28 00:33N 56°24' E 011°22'1414.1
2014-Aug-27 23:34N 56°35' E 011°39'1413.7
2014-Aug-27 22:33N 56°47' E 011°50'1414.5
2014-Aug-27 21:33N 57°01' E 011°42'1414.3
2014-Aug-27 20:33N 57°14' E 011°33'1414.0
2014-Aug-27 19:34N 57°28' E 011°37'1413.8
2014-Aug-27 18:34N 57°41' E 011°48'1 1.4
2014-Aug-27 17:31N 57°41' E 011°51'0 0.0
2014-Aug-27 16:32N 57°41' E 011°51'0 0.0
2014-Aug-27 15:32N 57°41' E 011°51'0 0.0
2014-Aug-27 14:32N 57°41' E 011°51'0 0.0
2014-Aug-27 13:32N 57°41' E 011°51'0 0.0
2014-Aug-27 12:32N 57°41' E 011°51'0 0.0
2014-Aug-27 11:32N 57°41' E 011°51'0 0.0
2014-Aug-27 10:32N 57°41' E 011°51'0 0.0
2014-Aug-27 09:33N 57°41' E 011°51'0 0.0
2014-Aug-27 08:33N 57°41' E 011°51'0 0.0
2014-Aug-27 07:33N 57°41' E 011°51'0 0.0
2014-Aug-27 06:33N 57°41' E 011°51'0 0.0
2014-Aug-27 05:33N 57°41' E 011°51'2 1.9
2014-Aug-27 04:33N 57°40' E 011°48'1413.8
2014-Aug-27 03:33N 57°38' E 011°22'1414.5
2014-Aug-27 02:33N 57°44' E 010°58'1413.9
2014-Aug-27 01:33N 57°47' E 010°32'1313.5
2014-Aug-27 00:33N 57°42' E 010°09'1413.8
2014-Aug-26 23:34N 57°36' E 009°45'1414.0
2014-Aug-26 22:33N 57°30' E 009°22'1414.1
2014-Aug-26 21:33N 57°24' E 008°58'1514.0
2014-Aug-26 20:30N 57°17' E 008°34'31814.4
2014-Aug-25 22:31N 54°59' E 000°00'1313.8
2014-Aug-25 21:33N 54°53' W 000°20'1413.8
2014-Aug-25 20:33N 54°47' W 000°42'1513.7
2014-Aug-25 19:27N 54°40' W 001°05'5 1.0
2014-Aug-25 14:31N 54°36' W 001°09'0 0.0
2014-Aug-25 13:33N 54°36' W 001°09'0 0.0
2014-Aug-25 12:14N 54°36' W 001°09'0 0.0
2014-Aug-25 11:29N 54°36' W 001°09'0 0.0
2014-Aug-25 10:32N 54°36' W 001°09'2 1.6
2014-Aug-25 09:33N 54°38' W 001°09'1313.4
2014-Aug-25 08:33N 54°36' W 000°46'1514.9
2014-Aug-25 07:33N 54°28' W 000°24'1515.1
2014-Aug-25 06:33N 54°17' W 000°08'1515.0
2014-Aug-25 05:33N 54°06' E 000°10'1514.7
2014-Aug-25 04:33N 53°55' E 000°26'1514.6
2014-Aug-25 03:33N 53°44' E 000°43'3215.9
2014-Aug-25 01:33N 53°17' E 001°13'1818.4
2014-Aug-25 00:33N 53°02' E 001°29'1818.4
2014-Aug-24 23:34N 52°48' E 001°49'1615.6
2014-Aug-24 22:34N 52°33' E 001°53'1615.7
2014-Aug-24 21:34N 52°18' E 001°46'1514.6
2014-Aug-24 20:33N 52°04' E 001°39'1312.8
2014-Aug-24 19:33N 51°56' E 001°23'3 3.2
2014-Aug-24 18:32N 51°57' E 001°18'0 0.0
2014-Aug-24 17:33N 51°57' E 001°18'0 0.0
2014-Aug-24 16:31N 51°57' E 001°18'0 0.0
2014-Aug-24 15:31N 51°57' E 001°18'0 0.0
2014-Aug-24 14:28N 51°57' E 001°18'0 0.0
2014-Aug-24 13:31N 51°57' E 001°18'0 0.0
2014-Aug-24 12:34N 51°57' E 001°18'0 0.0
2014-Aug-24 11:33N 51°57' E 001°18'0 0.0
2014-Aug-24 10:33N 51°57' E 001°18'1 0.8
2014-Aug-24 09:33N 51°57' E 001°19'8 8.0
2014-Aug-24 08:33N 51°58' E 001°32'0 0.0
2014-Aug-24 07:33N 51°58' E 001°32'5 5.1
2014-Aug-24 06:34N 51°53' E 001°34'1010.4
2014-Aug-24 05:34N 51°47' E 001°48'1212.2
2014-Aug-24 04:34N 51°35' E 001°48'1312.7
2014-Aug-24 03:34N 51°22' E 001°44'1212.2
2014-Aug-24 02:33N 51°10' E 001°42'1312.7
2014-Aug-24 01:34N 50°59' E 001°31'1813.6
2014-Aug-24 00:14N 50°43' E 001°19'1313.3
2014-Aug-23 23:17N 50°35' E 001°04'1013.0
2014-Aug-23 22:30N 50°30' E 000°50'1313.2
2014-Aug-23 21:33N 50°26' E 000°31'  
Track history (hours):
 
Tides and Currents Weather Stations Pressure Air Temp Water Temp Dewpoint Dewpoint Depression Visibility Wind Speed Wind Dir Waves Ship Positions

Euro Snow

Last reported at 2014-Sep-01 22:24 UTC. Time now 2014-Sep-01 23:53 UTC.
Position N 44°23' W 009°16'.

Length 133 m; draft 7.3 m.

Type: Cargo ship. MMSI: 235613000.

Date/timePositionNaut miles runAvg speedWind from/ knotsBaromVisibWave heightAir tempDewpointWater temp
2014-Sep-01 22:24N 44°23' W 009°16'22114.9
2014-Sep-01 07:32N 47°38' W 006°45'2115.0
2014-Sep-01 06:06N 47°57' W 006°30'2314.7
2014-Sep-01 04:33N 48°17' W 006°14'1515.1
2014-Sep-01 03:33N 48°30' W 006°05'1615.9
2014-Sep-01 02:33N 48°44' W 005°53'3316.4
2014-Sep-01 00:31N 49°05' W 005°13'9115.3
2014-Aug-31 18:33N 49°51' W 003°12'14215.4
2014-Aug-31 09:21N 50°34' E 000°19'1316.0
2014-Aug-31 08:33N 50°38' E 000°37'1616.5
2014-Aug-31 07:34N 50°47' E 000°59'1716.2
2014-Aug-31 06:30N 50°57' E 001°21'1614.8
2014-Aug-31 05:26N 51°08' E 001°39'1213.7
2014-Aug-31 04:33N 51°18' E 001°51'1413.7
2014-Aug-31 03:33N 51°29' E 002°04'1414.3
2014-Aug-31 02:33N 51°40' E 002°19'4814.9
2014-Aug-30 23:19N 52°04' E 003°27'1215.8
2014-Aug-30 22:34N 52°04' E 003°47'1212.0
2014-Aug-30 21:33N 51°58' E 004°04'1 0.8
2014-Aug-30 20:30N 51°58' E 004°03'0 0.0
2014-Aug-30 19:29N 51°58' E 004°03'0 0.0
2014-Aug-30 18:32N 51°58' E 004°03'0 0.0
2014-Aug-30 17:33N 51°58' E 004°03'0 0.0
2014-Aug-30 16:33N 51°58' E 004°03'0 0.0
2014-Aug-30 15:33N 51°58' E 004°03'0 0.0
2014-Aug-30 14:33N 51°58' E 004°03'0 0.0
2014-Aug-30 13:30N 51°58' E 004°03'0 0.0
2014-Aug-30 12:25N 51°58' E 004°03'0 0.0
2014-Aug-30 11:31N 51°58' E 004°03'0 0.0
2014-Aug-30 10:31N 51°58' E 004°03'0 0.0
2014-Aug-30 09:31N 51°58' E 004°03'0 0.0
2014-Aug-30 08:31N 51°58' E 004°03'0 0.0
2014-Aug-30 07:31N 51°58' E 004°03'0 0.0
2014-Aug-30 04:23N 51°58' E 004°03'0 0.0
2014-Aug-30 03:26N 51°58' E 004°03'0 0.0
2014-Aug-30 02:32N 51°58' E 004°03'0 0.0
2014-Aug-30 01:32N 51°58' E 004°03'0 0.0
2014-Aug-30 00:33N 51°58' E 004°03'2 1.7
2014-Aug-29 23:34N 51°58' E 004°05'1313.2
2014-Aug-29 22:33N 52°05' E 003°47'1515.5
2014-Aug-29 21:33N 52°21' E 003°48'1514.8
2014-Aug-29 20:33N 52°35' E 003°51'1414.1
2014-Aug-29 19:33N 52°49' E 003°57'1313.4
2014-Aug-29 18:33N 53°01' E 004°06'1313.4
2014-Aug-29 17:33N 53°11' E 004°22'1413.5
2014-Aug-29 16:33N 53°23' E 004°32'1615.0
2014-Aug-29 15:30N 53°38' E 004°40'1515.0
2014-Aug-29 14:32N 53°52' E 004°47'12215.2
2014-Aug-29 06:33N 55°37' E 006°34'1615.6
2014-Aug-29 05:32N 55°50' E 006°49'14115.6
2014-Aug-28 20:32N 57°36' E 009°39'1616.5
2014-Aug-28 19:33N 57°43' E 010°05'1616.1
2014-Aug-28 18:34N 57°48' E 010°34'1514.7
2014-Aug-28 17:33N 57°41' E 010°59'1615.6
2014-Aug-28 16:33N 57°31' E 011°20'1413.9
2014-Aug-28 15:34N 57°19' E 011°32'1716.3
2014-Aug-28 14:32N 57°03' E 011°43'1616.2
2014-Aug-28 13:30N 56°47' E 011°52'3216.1
2014-Aug-28 11:30N 56°21' E 011°18'2216.7
2014-Aug-28 10:11N 56°04' E 010°53'1 0.2
2014-Aug-28 02:27N 56°03' E 010°51'1315.1
2014-Aug-28 01:33N 56°14' E 011°06'1413.9
2014-Aug-28 00:33N 56°24' E 011°22'1414.1
2014-Aug-27 23:34N 56°35' E 011°39'1413.7
2014-Aug-27 22:33N 56°47' E 011°50'1414.5
2014-Aug-27 21:33N 57°01' E 011°42'1414.3
2014-Aug-27 20:33N 57°14' E 011°33'1414.0
2014-Aug-27 19:34N 57°28' E 011°37'1413.8
2014-Aug-27 18:34N 57°41' E 011°48'1 1.4
2014-Aug-27 17:31N 57°41' E 011°51'0 0.0
2014-Aug-27 16:32N 57°41' E 011°51'0 0.0
2014-Aug-27 15:32N 57°41' E 011°51'0 0.0
2014-Aug-27 14:32N 57°41' E 011°51'0 0.0
2014-Aug-27 13:32N 57°41' E 011°51'0 0.0
2014-Aug-27 12:32N 57°41' E 011°51'0 0.0
2014-Aug-27 11:32N 57°41' E 011°51'0 0.0
2014-Aug-27 10:32N 57°41' E 011°51'0 0.0
2014-Aug-27 09:33N 57°41' E 011°51'0 0.0
2014-Aug-27 08:33N 57°41' E 011°51'0 0.0
2014-Aug-27 07:33N 57°41' E 011°51'0 0.0
2014-Aug-27 06:33N 57°41' E 011°51'0 0.0
2014-Aug-27 05:33N 57°41' E 011°51'2 1.9
2014-Aug-27 04:33N 57°40' E 011°48'1413.8
2014-Aug-27 03:33N 57°38' E 011°22'1414.5
2014-Aug-27 02:33N 57°44' E 010°58'1413.9
2014-Aug-27 01:33N 57°47' E 010°32'1313.5
2014-Aug-27 00:33N 57°42' E 010°09'1413.8
2014-Aug-26 23:34N 57°36' E 009°45'1414.0
2014-Aug-26 22:33N 57°30' E 009°22'1414.1
2014-Aug-26 21:33N 57°24' E 008°58'1514.0
2014-Aug-26 20:30N 57°17' E 008°34'31814.4
2014-Aug-25 22:31N 54°59' E 000°00'1313.8
2014-Aug-25 21:33N 54°53' W 000°20'1413.8
2014-Aug-25 20:33N 54°47' W 000°42'1513.7
2014-Aug-25 19:27N 54°40' W 001°05'5 1.0
2014-Aug-25 14:31N 54°36' W 001°09'0 0.0
2014-Aug-25 13:33N 54°36' W 001°09'0 0.0
2014-Aug-25 12:14N 54°36' W 001°09'0 0.0
2014-Aug-25 11:29N 54°36' W 001°09'0 0.0
2014-Aug-25 10:32N 54°36' W 001°09'2 1.6
2014-Aug-25 09:33N 54°38' W 001°09'1313.4
2014-Aug-25 08:33N 54°36' W 000°46'1514.9
2014-Aug-25 07:33N 54°28' W 000°24'1515.1
2014-Aug-25 06:33N 54°17' W 000°08'1515.0
2014-Aug-25 05:33N 54°06' E 000°10'1514.7
2014-Aug-25 04:33N 53°55' E 000°26'1514.6
2014-Aug-25 03:33N 53°44' E 000°43'3215.9
2014-Aug-25 01:33N 53°17' E 001°13'1818.4
2014-Aug-25 00:33N 53°02' E 001°29'1818.4
2014-Aug-24 23:34N 52°48' E 001°49'1615.6
2014-Aug-24 22:34N 52°33' E 001°53'1615.7
2014-Aug-24 21:34N 52°18' E 001°46'1514.6
2014-Aug-24 20:33N 52°04' E 001°39'1312.8
2014-Aug-24 19:33N 51°56' E 001°23'3 3.2
2014-Aug-24 18:32N 51°57' E 001°18'0 0.0
2014-Aug-24 17:33N 51°57' E 001°18'0 0.0
2014-Aug-24 16:31N 51°57' E 001°18'0 0.0
2014-Aug-24 15:31N 51°57' E 001°18'0 0.0
2014-Aug-24 14:28N 51°57' E 001°18'0 0.0
2014-Aug-24 13:31N 51°57' E 001°18'0 0.0
2014-Aug-24 12:34N 51°57' E 001°18'0 0.0
2014-Aug-24 11:33N 51°57' E 001°18'0 0.0
2014-Aug-24 10:33N 51°57' E 001°18'1 0.8
2014-Aug-24 09:33N 51°57' E 001°19'8 8.0
2014-Aug-24 08:33N 51°58' E 001°32'0 0.0
2014-Aug-24 07:33N 51°58' E 001°32'5 5.1
2014-Aug-24 06:34N 51°53' E 001°34'1010.4
2014-Aug-24 05:34N 51°47' E 001°48'1212.2
2014-Aug-24 04:34N 51°35' E 001°48'1312.7
2014-Aug-24 03:34N 51°22' E 001°44'1212.2
2014-Aug-24 02:33N 51°10' E 001°42'1312.7
2014-Aug-24 01:34N 50°59' E 001°31'1813.6
2014-Aug-24 00:14N 50°43' E 001°19'1313.3
2014-Aug-23 23:17N 50°35' E 001°04'1013.0
2014-Aug-23 22:30N 50°30' E 000°50'1313.2
2014-Aug-23 21:33N 50°26' E 000°31'  

Dump ship's entire track history